Location: Mentone
(34.5413°N, 85.5351°W)
Time: 16:26:47
(UTC-05:00)

Tiros 1 despin weight - All Passes

Search period start: 29 April 2017 00:00
Search period end: 09 May 2017 00:00
Orbit: 595 x 644 km, 48.2° (Epoch: 28 April)

Date Brightness Start Highest point End Pass type
(mag) Time Alt. Az. Time Alt. Az. Time Alt. Az.
29 Apr - 13:11:31 10° SSW 13:16:02 51° SE 13:20:36 10° ENE daylight
29 Apr - 14:53:34 10° W 14:57:48 33° NNW 15:02:03 10° NE daylight
29 Apr - 16:37:40 10° NW 16:40:32 16° N 16:43:23 10° NNE daylight
29 Apr - 18:20:17 10° NNW 18:23:35 19° NNE 18:26:51 10° ENE daylight
29 Apr - 20:01:25 10° NW 20:05:59 53° NNE 20:10:30 10° ESE visible
29 Apr - 21:43:34 10° WNW 21:47:21 25° SW 21:51:05 10° S visible
30 Apr - 11:49:01 10° SSE 11:51:53 16° SE 11:54:44 10° E daylight
30 Apr - 13:28:20 10° SW 13:33:01 79° NW 13:37:43 10° NE daylight
30 Apr - 15:11:30 10° WNW 15:15:11 22° NNW 15:18:53 10° NNE daylight
30 Apr - 16:55:26 10° NW 16:58:09 15° N 17:00:52 10° NE daylight
30 Apr - 18:37:09 10° NW 18:41:03 25° NNE 18:44:54 10° ENE daylight
30 Apr - 20:18:23 10° NW 20:23:04 80° SW 20:27:39 10° SE visible
30 Apr - 22:02:37 10° WSW 22:04:02 11° SW 22:05:27 10° SW visible
01 May - 12:04:25 10° SSW 12:08:36 34° SE 12:12:51 10° ENE daylight
01 May - 13:45:41 10° WSW 13:50:09 43° NNW 13:54:39 10° NE daylight
01 May - 15:29:35 10° NW 15:32:42 17° N 15:35:49 10° NNE daylight
01 May - 17:12:44 10° NNW 17:15:45 17° N 17:18:46 10° NE daylight
01 May - 18:53:58 10° NW 18:58:23 39° NNE 19:02:43 10° E daylight
01 May - 20:35:40 10° WNW 20:39:59 38° SW 20:44:13 10° SSE visible
02 May - 12:20:52 10° SW 12:25:29 72° SE 12:30:11 10° ENE daylight
02 May - 14:03:27 10° W 14:07:26 27° NNW 14:11:28 10° NE daylight
02 May - 15:47:33 10° NW 15:50:18 15° N 15:53:03 10° NNE daylight
02 May - 17:29:43 10° NNW 17:33:18 21° NNE 17:36:52 10° ENE daylight
02 May - 19:10:51 10° NW 19:15:32 71° NE 19:20:09 10° ESE daylight
02 May - 20:53:36 10° W 20:56:43 18° SW 20:59:50 10° S visible
03 May - 10:57:38 10° S 11:01:13 23° SE 11:04:51 10° E daylight
03 May - 12:37:56 10° WSW 12:42:32 59° NW 12:47:11 10° NE daylight
03 May - 14:21:29 10° WNW 14:24:54 19° NNW 14:28:19 10° NNE daylight
03 May - 16:05:06 10° NNW 16:07:55 15° N 16:10:44 10° NE daylight
03 May - 17:46:33 10° NW 17:50:42 30° NNE 17:54:50 10° E daylight
03 May - 19:27:56 10° WNW 19:32:32 58° SW 19:37:03 10° SE daylight
04 May - 11:13:35 10° SSW 11:18:01 47° SE 11:22:31 10° ENE daylight
04 May - 12:55:29 10° W 12:59:44 34° NNW 13:04:03 10° NE daylight
04 May - 14:39:33 10° NW 14:42:27 16° N 14:45:21 10° NNE daylight
04 May - 16:22:14 10° NNW 16:25:30 18° NNE 16:28:46 10° ENE daylight
04 May - 18:03:22 10° NW 18:07:57 50° NNE 18:12:28 10° ESE daylight
04 May - 19:45:25 10° WNW 19:49:22 27° SW 19:53:16 10° S daylight
05 May - 09:51:21 10° SSE 09:53:53 15° SE 09:56:26 10° E daylight
05 May - 11:30:20 10° SW 11:34:58 84° NW 11:39:41 10° NE daylight
05 May - 13:13:23 10° WNW 13:17:06 23° NNW 13:20:52 10° NNE daylight
05 May - 14:57:20 10° NW 15:00:04 15° N 15:02:47 10° NE daylight
05 May - 16:39:07 10° NW 16:42:59 24° NNE 16:46:50 10° ENE daylight
05 May - 18:20:20 10° NW 18:25:02 86° SW 18:29:41 10° SE daylight
05 May - 20:04:04 10° WSW 20:06:04 13° SW 20:08:02 10° SSW visible
06 May - 10:06:33 10° SSW 10:10:36 31° SE 10:14:43 10° ENE daylight
06 May - 11:47:38 10° WSW 11:52:05 45° NNW 11:56:36 10° NE daylight
06 May - 13:31:27 10° NW 13:34:37 17° NNW 13:37:46 10° NNE daylight
06 May - 15:14:41 10° NNW 15:17:40 16° N 15:20:39 10° NE daylight
06 May - 16:55:56 10° NW 17:00:19 37° NNE 17:04:40 10° E daylight
06 May - 18:37:33 10° WNW 18:41:58 41° SW 18:46:19 10° SSE daylight
07 May - 10:22:54 10° SW 10:27:28 66° SE 10:32:06 10° ENE daylight
07 May - 12:05:21 10° W 12:09:22 28° NNW 12:13:26 10° NE daylight
07 May - 13:49:26 10° NW 13:52:12 15° N 13:54:58 10° NNE daylight
07 May - 15:31:40 10° NNW 15:35:13 21° NNE 15:38:44 10° ENE daylight
07 May - 17:12:48 10° NW 17:17:30 67° NE 17:22:08 10° ESE daylight
07 May - 18:55:22 10° W 18:58:44 20° SW 19:02:04 10° S daylight
08 May - 08:59:50 10° S 09:03:14 21° SE 09:06:40 10° E daylight
08 May - 10:39:55 10° WSW 10:44:29 63° NW 10:49:08 10° NE daylight
08 May - 12:23:21 10° WNW 12:26:48 20° NNW 12:30:16 10° NNE daylight
08 May - 14:07:02 10° NNW 14:09:50 15° N 14:12:36 10° NE daylight
08 May - 15:48:30 10° NW 15:52:37 29° NNE 15:56:43 10° E daylight
08 May - 17:29:51 10° WNW 17:34:30 63° SW 17:39:06 10° SE daylight
